Location: Orange Harbor Mobile Home Park
(26.6923°N, 81.7937°W)
Time: 00:34:30
(UTC+00:00)

Tianhe-1 - Visible Passes

Search period start: 22 June 2021 00:00
Search period end: 02 July 2021 00:00
Orbit: 375 x 386 km, 41.5° (Epoch: 21 June)

Date Brightness Start Highest point End Pass type
(mag) Time Alt. Az. Time Alt. Az. Time Alt. Az.
27 Jun 4.1 09:56:37 10° NNW 09:58:33 15° NNE 10:00:29 10° ENE visible
29 Jun 3.6 09:30:51 10° NNW 09:33:28 24° NNE 09:36:05 10° E visible
30 Jun 4.2 08:30:28 10° NNW 08:32:17 14° NNE 08:34:07 10° ENE visible
30 Jun 1.0 10:06:09 10° WNW 10:09:18 79° SSW 10:12:25 10° SE visible
01 Jul 3.1 01:00:36 10° SSE 01:01:38 11° SE 01:02:05 11° SE visible
01 Jul 2.2 09:05:17 10° NW 09:08:17 43° NNE 09:11:19 10° ESE visible
